Date String (YYYY-MM-DD hh:mm:ss) UTC,Instrument flags,Ambient pressure (hPa),Sample flow (lpm),Bypass flow (lpm),Sample temperature (°C),Ambient temperature (°C),ASC tube jacket temperature (°C),LED temperature (°C),Box temperature (°C),Sample RH (%),Span deviation,Mass concentration (μg/m³),Mass concentration (μg/m³),Mass concentration (μg/m³)
DateTimeUTC,F1_M11,P_M11,Q1_M11,Q2_M11,T1_M11,T2_M11,T3_M11,T4_M11,T5_M11,U1_M11,ZSPAN_M11,X2_M11,X0_M11,X1_M11
2022-12-31 09:00:00,,0812.5,4.98,0.00,22.2,20.9,00.0,31.1,23.9,11.5,0000.0,0010.58,0015.18,0010.02
2022-12-31 09:01:00,,0812.5,4.97,0.00,22.2,20.8,00.0,31.1,23.9,11.6,0000.0,0010.23,0014.92,0009.69
2022-12-31 09:02:00,,0812.5,5.01,0.00,22.2,20.6,00.0,31.1,23.8,11.7,0000.0,0009.86,0014.45,0009.38
2022-12-31 09:03:00,,0812.4,5.00,0.00,22.1,20.6,00.0,31.1,23.8,11.7,0000.0,0009.64,0013.88,0009.18
2022-12-31 09:04:00,,0812.4,5.03,0.00,22.1,20.6,00.0,31.1,23.8,11.7,0000.0,0009.51,0013.47,0009.05
2022-12-31 09:05:00,,0812.3,5.02,0.00,22.1,20.6,00.0,31.0,23.8,11.7,0000.0,0009.43,0013.35,0008.97
2022-12-31 09:06:00,,0812.3,4.99,0.00,22.1,20.4,00.0,31.0,23.7,11.7,0000.0,0009.35,0012.95,0008.89
2022-12-31 09:07:00,,0812.4,4.97,0.00,22.0,20.0,00.0,31.0,23.5,11.7,0000.0,0009.40,0012.96,0008.93
2022-12-31 09:08:00,,0812.4,5.03,0.00,21.9,20.4,00.0,30.9,23.5,11.6,0000.0,0009.54,0013.13,0009.06
2022-12-31 09:09:00,,0812.5,5.01,0.00,22.0,21.4,00.0,30.9,23.8,11.6,0000.0,0009.57,0013.19,0009.09
2022-12-31 09:10:00,,0812.5,5.02,0.00,22.1,22.3,00.0,30.9,24.1,11.6,0000.0,0009.43,0013.70,0008.96
2022-12-31 09:11:00,,0812.5,4.96,0.00,22.2,22.5,00.0,30.9,24.2,11.6,0000.0,0009.33,0013.62,0008.85
2022-12-31 09:12:00,,0812.5,4.98,0.00,22.2,21.6,00.0,31.0,23.9,11.3,0000.0,0009.56,0014.04,0009.08
2022-12-31 09:13:00,,0812.5,5.00,0.00,22.1,20.9,00.0,31.0,23.7,11.2,0000.0,0010.00,0015.25,0009.49
2022-12-31 09:14:00,,0812.5,5.01,0.00,22.0,20.4,00.0,31.0,23.5,11.5,0000.0,0010.10,0015.68,0009.59
2022-12-31 09:15:00,,0812.5,4.99,0.00,22.0,20.3,00.0,31.0,23.5,11.7,0000.0,0010.14,0015.90,0009.61
2022-12-31 09:16:00,,0812.4,4.99,0.00,21.9,20.2,00.0,31.0,23.5,11.5,0000.0,0010.36,0016.25,0009.80
2022-12-31 09:17:00,,0812.3,5.03,0.00,21.9,20.2,00.0,30.9,23.4,11.7,0000.0,0010.51,0016.47,0009.96
2022-12-31 09:18:00,,0812.1,4.98,0.00,21.9,20.2,00.0,30.9,23.4,12.0,0000.0,0010.30,0016.51,0009.75
2022-12-31 09:19:00,,0812.1,4.98,0.00,21.9,20.2,00.0,30.9,23.4,12.2,0000.0,0009.79,0015.88,0009.27
2022-12-31 09:20:00,,0812.0,4.99,0.00,21.8,20.2,00.0,30.9,23.5,12.4,0000.0,0009.25,0015.27,0008.73
2022-12-31 09:21:00,,0812.0,5.04,0.00,21.8,20.4,00.0,30.9,23.5,12.4,0000.0,0008.78,0014.10,0008.28
2022-12-31 09:22:00,,0812.1,4.99,0.00,21.9,20.4,00.0,30.9,23.5,12.4,0000.0,0008.33,0013.79,0007.88
2022-12-31 09:23:00,,0812.0,4.97,0.00,21.8,20.4,00.0,30.8,23.5,12.4,0000.0,0007.66,0012.77,0007.25
2022-12-31 09:24:00,,0812.1,5.00,0.00,21.8,20.5,00.0,30.8,23.6,12.4,0000.0,0006.83,0011.07,0006.45
2022-12-31 09:25:00,,0812.2,4.99,0.00,21.9,20.5,00.0,30.8,23.6,12.4,0000.0,0006.29,0010.10,0005.93
2022-12-31 09:26:00,,0812.1,5.03,0.00,21.9,20.6,00.0,30.8,23.6,12.4,0000.0,0005.82,0009.30,0005.51
2022-12-31 09:27:00,,0812.1,5.01,0.00,21.9,20.6,00.0,30.8,23.6,12.5,0000.0,0005.17,0008.47,0004.90
2022-12-31 09:28:00,,0811.9,4.96,0.00,21.9,21.4,00.0,30.7,23.8,12.4,0000.0,0004.61,0007.80,0004.36
2022-12-31 09:29:00,,0812.0,5.00,0.00,22.1,22.4,00.0,30.7,24.1,12.4,0000.0,0004.33,0007.07,0004.11
2022-12-31 09:30:00,,0812.1,5.02,0.00,22.2,22.9,00.0,30.8,24.3,12.2,0000.0,0004.34,0007.11,0004.11
2022-12-31 09:31:00,,0812.1,5.01,0.00,22.3,22.6,00.0,30.9,24.2,11.6,0000.0,0004.88,0007.81,0004.63
2022-12-31 09:32:00,,0812.3,4.98,0.00,22.3,22.1,00.0,30.9,24.2,11.4,0000.0,0005.49,0008.69,0005.24
2022-12-31 09:33:00,,0812.2,4.98,0.00,22.3,21.7,00.0,30.9,24.1,11.5,0000.0,0006.05,0009.31,0005.79
2022-12-31 09:34:00,,0812.2,5.01,0.00,22.2,21.4,00.0,31.0,24.0,11.7,0000.0,0006.44,0009.67,0006.16
2022-12-31 09:35:00,,0812.1,5.04,0.00,22.2,21.2,00.0,31.0,24.0,11.8,0000.0,0006.74,0010.06,0006.43
2022-12-31 09:36:00,,0812.1,5.00,0.00,22.2,21.0,00.0,31.0,23.9,11.8,0000.0,0007.10,0010.46,0006.78
2022-12-31 09:37:00,,0812.1,4.98,0.00,22.2,20.9,00.0,31.0,23.9,12.0,0000.0,0007.28,0011.08,0006.96
2022-12-31 09:38:00,,0812.1,4.97,0.00,22.2,20.9,00.0,31.0,23.9,12.2,0000.0,0007.34,0011.12,0007.03
2022-12-31 09:39:00,,0812.1,5.03,0.00,22.2,20.8,00.0,31.0,23.9,11.6,0000.0,0007.93,0011.78,0007.54
2022-12-31 09:40:00,,0812.1,5.01,0.00,22.1,20.7,00.0,31.0,23.7,11.1,0000.0,0008.95,0012.91,0008.48
2022-12-31 09:41:00,,0812.1,4.98,0.00,22.1,20.5,00.0,31.0,23.6,10.9,0000.0,0009.79,0014.56,0009.33
2022-12-31 09:42:00,,0812.1,4.96,0.00,22.0,20.3,00.0,31.0,23.5,10.7,0000.0,0010.43,0015.32,0009.96
2022-12-31 09:43:00,,0812.1,5.03,0.00,22.0,20.0,00.0,31.0,23.4,10.7,0000.0,0011.16,0015.80,0010.64
2022-12-31 09:44:00,,0812.3,4.98,0.00,21.9,19.8,00.0,30.9,23.3,10.7,0000.0,0011.94,0016.41,0011.41
2022-12-31 09:45:00,,0812.3,5.02,0.00,21.8,19.9,00.0,30.9,23.3,10.8,0000.1,0012.88,0017.36,0012.32
2022-12-31 09:46:00,,0812.2,5.00,0.00,21.9,21.0,00.0,30.8,23.5,10.8,0000.8,0013.87,0018.42,0013.36
2022-12-31 09:47:00,,0812.3,4.99,0.00,22.0,22.2,00.0,30.8,23.9,10.8,0001.1,0014.76,0019.48,0014.21
2022-12-31 09:48:00,,0812.3,4.99,0.00,22.1,22.5,00.0,30.9,24.1,10.7,0000.8,0015.90,0020.27,0015.31
2022-12-31 09:49:00,,0812.3,5.02,0.00,22.2,22.1,00.0,30.9,24.0,10.7,0000.8,0017.17,0021.69,0016.59
2022-12-31 09:50:00,,0812.3,5.01,0.00,22.2,21.7,00.0,30.9,23.9,10.7,0000.9,0017.91,0022.42,0017.35
2022-12-31 09:51:00,,0812.3,4.98,0.00,22.1,21.4,00.0,31.0,23.8,10.7,0001.7,0018.25,0022.73,0017.73
2022-12-31 09:52:00,,0812.4,4.99,0.00,22.1,21.0,00.0,31.0,23.7,10.7,0001.5,0018.60,0022.36,0018.09
2022-12-31 09:53:00,,0812.4,5.00,0.00,22.1,20.6,00.0,31.0,23.7,10.7,0001.0,0018.75,0022.34,0018.26
2022-12-31 09:54:00,,0812.3,5.04,0.00,22.0,20.3,00.0,31.0,23.5,10.7,0000.8,0018.86,0022.40,0018.39
2022-12-31 09:55:00,,0812.1,5.00,0.00,22.0,20.2,00.0,30.9,23.5,10.9,0000.7,0018.80,0022.31,0018.35
2022-12-31 09:56:00,,0812.1,4.96,0.00,21.9,20.1,00.0,30.9,23.5,11.1,0001.2,0018.46,0022.01,0018.02
2022-12-31 09:57:00,,0812.2,5.00,0.00,21.9,20.1,00.0,30.9,23.5,11.1,0001.5,0018.13,0021.62,0017.69
2022-12-31 09:58:00,,0812.3,5.01,0.00,21.9,20.0,00.0,30.9,23.5,11.2,0002.0,0017.88,0021.28,0017.43
2022-12-31 09:59:00,,0812.3,5.00,0.00,21.8,20.0,00.0,30.9,23.4,11.2,0002.5,0017.69,0021.17,0017.20
